Regional Weather Roundup
Issued by NWS

Home | Current Version | Previous Version | Text Only | Print | Product List | Glossary On
Versions: 1 2 3 4 5 6 7 8 9 10 11 12 13 14 15 16 17 18 19 20 21 22 23 24 25 26 27 28 29 30 31 32 33 34 35 36 37 38 39 40 41 42 43 44 45 46 47 48 49 50
000
ASUS44 KMEG 240610
RWRTN
TENNESSEE HOURLY STATE WEATHER ROUNDUP
NATIONAL WEATHER SERVICE MEMPHIS TN
100 AM CDT TUE MAY 24 2016

TNZ002-004-019-021-049-052-054-088>092-240700-
WEST TENNESSEE

CITY           SKY/WX    TMP DP  RH WIND       PRES   REMARKS
MEMPHIS INTL   MOCLDY    71  54  54 S7        29.98S
NWS MEMPHIS      N/A     65 N/A N/A MISG        N/A
JACKSON        PTCLDY    60  57  89 CALM      30.00R
DYERSBURG      PTCLDY    64  55  72 SE3       29.99S
UNION CITY     CLEAR     64  57  77 CALM      29.99S
PARIS          CLEAR     59  54  82 SE3       30.00R
LEXINGTON      CLEAR     59  57  94 CALM      29.99S
$$

TNZ008-025-027-028-033-062-065-066-240700-
NORTH MIDDLE TENNESSEE

CITY           SKY/WX    TMP DP  RH WIND       PRES   REMARKS
NASHVILLE      CLEAR     60  52  74 CALM      30.02S
CLARKSVILLE    CLOUDY    61  51  70 CALM      30.00S
SMYRNA         CLEAR     56  54  93 CALM      30.03S
COOKEVILLE     CLEAR     46  46 100 CALM      30.03S
CROSSVILLE     CLEAR     53  45  74 CALM      30.08S
$$

TNZ061-075-076-078-094-096-097-240700-
SOUTH MIDDLE TENNESSEE

CITY           SKY/WX    TMP DP  RH WIND       PRES   REMARKS
FAYETTEVILLE   PTCLDY    63  50  63 NE3       30.02S
TULLAHOMA      CLEAR     52  52 100 CALM      30.05R
WINCHESTER     CLEAR     55  50  82 CALM      30.04S
MCMINNVILLE    CLEAR     52  52 100 CALM      30.04S
COLUMBIA       CLEAR    N/A N/A N/A CALM      30.00F
SHELBYVILLE    CLEAR     57  50  77 E5        30.03S
$$

TNZ017-018-042-046-047-240700-
NORTHEAST TENNESSEE

CITY           SKY/WX    TMP DP  RH WIND       PRES   REMARKS
TRI CITIES     CLEAR     50  48  93 CALM      30.08F
$$

TNZ012-013-036-069-073-074-240700-
CENTRAL EAST TENNESSEE

CITY           SKY/WX    TMP DP  RH WIND       PRES   REMARKS
KNOXVILLE      CLEAR     60  52  74 CALM      30.04S
OAK RIDGE      CLEAR     56  51  84 CALM      30.06F
GATLINBURG     PTCLDY    54  50  87 CALM      30.05S
$$

TNZ083-085-099-240700-
SOUTHEAST TENNESSEE

CITY           SKY/WX    TMP DP  RH WIND       PRES   REMARKS
CHATTANOOGA    CLEAR     61  54  77 CALM      30.03S
$$

SKY/WX REPORTED AS FAIR MEANS FEW OR NO CLOUDS BELOW
12 THOUSAND FEET.




USA.gov is the U.S. government's official web portal to all federal, state and local government web resources and services.